User: anonymous   Login
Location: Newark
(41.7772°N, 74.7403°W)
Time: 16:48:02
(UTC+00:00)
Language:

N. Korean satellite - Orbit

View from above orbital plane
View from above orbital plane
View from above satellite
View from above satellite

Ground track
Ground track

The orbit data is extracted from the following two-line orbital elements,

1 39026U 12072A   20151.70475688 +.00001241 +00000-0 +46534-4 0  9990
2 39026 097.2228 149.0264 0035947 309.1443 050.6604 15.28559601414530
Epoch (UTC): 30 May 2020 16:54:50
Eccentricity: 0.0035947
inclination: 97.2228°
perigee height: 455 km
apogee height: 505 km
right ascension of ascending node: 149.0264°
argument of perigee: 309.1443°
revolutions per day: 15.28559601
mean anomaly at epoch: 50.6604°
orbit number at epoch: 41453

The dashed part of the orbit path shows where the satellite is in the earth's shadow,  

DLR